Voltar ao catálogo

CZ-3C DEB

LostGTO
NORAD 39343·DEBRIS·🇨🇳 China

Lançado Oct 31, 2010 de Xichang Satellite Launch Center

Loading…

TLE

ObsoletoSource: Space-Track

Época: May 31, 2026, 17:03 UTC

1 39343U 10057H   26151.71055537 -.00000273  00000-0 -87555-3 0  9990
2 39343  21.9820  31.6949 7117030 216.0763  63.2911  2.32933365107503

Acompanhe CZ-3C DEB em tempo real com AllMySat

Download on the App Store